Wind_Speed
5 5 4 4 4 3 4 4 4 4 5 5 4 5 5 6 6 6 7 8 9 9 9 9 9 8 9 9 10 10 10 9 9 9 8 8 8 9 8 8 8 9 9
4 5 5 4 4 5 5 4 4 4 5 5 4 4 5 5 5 6 6 7 8 8 8 8 8 9 8 8 8 9 9 8 8 8 8 8 8 9 9 9 9 10 10
6 5 5 5 5 5 6 6 5 4 4 4 4 4 4 4 5 6 7 7 8 8 8 8 8 9 9 9 9 9 9 9 9 9 9 9 8 8 9 9 10 10 10
7 6 7 6 6 6 6 6 5 5 4 4 4 5 5 6 6 6 6 6 7 8 8 8 8 9 9 10 9 10 10 10 10 10 9 9 10 10 9 9 9 10 10
7 7 7 7 7 7 7 6 4 5 4 4 4 5 5 5 6 7 6 6 7 8 8 9 9 9 10 10 10 10 10 10 10 10 10 10 10 11 10 10 10 10 11
8 8 8 8 8 7 7 6 5 5 5 4 4 5 6 6 6 7 7 7 7 7 8 9 9 9 10 9 10 10 11 11 10 11 11 11 11 11 11 11 11 11 12
8 8 8 8 8 7 6 6 6 5 6 5 5 6 6 7 7 7 7 7 8 8 8 8 8 9 9 9 9 10 10 11 11 11 11 11 11 11 11 11 12 12 12
10 10 9 9 9 8 6 6 6 6 6 6 6 6 6 6 6 7 8 7 7 8 8 8 7 8 8 9 9 10 10 10 11 11 12 12 12 12 12 12 13 13 13
10 10 10 10 9 8 6 6 6 6 6 6 6 6 6 7 7 7 7 8 8 9 8 8 8 8 8 9 9 9 9 10 10 11 12 13 13 14 13 13 13 14 14
11 11 11 11 10 9 9 8 8 8 8 7 7 7 7 8 8 9 9 8 9 9 9 8 8 9 9 9 9 9 9 10 10 11 12 13 14 14 15 15 15 15 15
13 12 11 11 11 11 10 10 10 10 9 9 9 9 9 8 9 9 9 9 9 10 10 9 8 8 9 9 10 10 10 11 12 12 13 13 14 15 16 17 16 16 16
15 14 13 13 12 12 12 11 11 11 12 11 11 11 11 10 10 11 11 10 10 10 10 9 9 9 10 10 11 11 11 12 12 13 14 14 15 16 16 16 17 17 18
16 15 15 14 13 13 13 13 12 13 13 13 13 13 13 13 13 12 12 12 11 11 11 11 11 11 11 12 12 12 13 13 14 14 15 16 16 16 17 18 18 18 19
17 17 17 16 15 15 15 14 14 15 14 15 15 15 14 14 13 13 13 13 13 12 12 12 13 13 13 13 13 14 14 14 14 15 16 16 16 17 18 18 19 19 19
19 19 18 17 17 16 17 16 16 16 16 16 15 15 15 15 15 15 14 14 14 13 14 14 15 15 15 15 15 15 15 16 16 15 16 16 16 17 18 19 19 20 20
21 20 19 19 19 18 18 18 18 17 18 17 16 16 16 16 16 15 15 15 16 15 14 15 16 16 17 17 17 17 16 16 17 17 17 17 17 18 18 19 20 20 20
21 21 21 21 20 20 19 19 19 18 18 17 17 17 17 17 17 17 17 17 17 17 16 16 17 17 18 18 18 18 17 17 16 17 17 17 17 18 19 20 20 21 21
20 20 20 21 21 22 22 21 20 19 19 18 18 18 18 19 19 19 19 19 19 19 18 18 18 18 19 20 19 19 18 17 17 18 17 17 18 18 19 19 20 21 21
20 21 21 21 21 21 21 21 21 21 21 20 20 20 20 20 20 20 20 20 20 19 19 19 19 19 19 20 20 18 18 18 18 19 18 18 19 19 19 20 20 20 21
21 21 21 21 21 21 21 20 21 22 22 23 22 22 22 22 21 21 21 21 21 21 21 20 20 20 20 20 20 20 20 19 19 19 19 19 20 20 21 21 21 21 21
23 23 23 23 23 22 22 22 22 22 22 23 23 23 23 22 23 23 22 22 22 23 23 23 23 22 21 21 21 21 21 21 20 21 20 21 21 21 22 22 23 23 23
24 24 24 24 24 23 23 23 23 23 24 24 24 24 24 24 24 24 24 24 24 25 24 24 24 24 23 23 22 22 22 22 22 22 22 22 23 23 23 24 24 24 24
25 25 25 25 24 24 24 24 24 24 24 25 25 24 25 25 25 25 25 25 25 25 25 25 25 25 24 24 24 23 23 24 24 23 23 22 23 24 24 25 25 25 25
25 25 26 26 25 25 25 25 25 25 24 24 24 24 25 25 26 26 25 25 25 26 26 26 26 26 26 26 25 26 26 26 26 26 26 25 24 25 25 25 26 26 26
26 27 27 27 26 26 25 25 25 25 25 24 24 25 25 25 25 26 25 25 26 26 26 27 27 27 27 27 27 27 27 27 27 27 28 28 27 27 27 27 27 27 27
27 27 27 27 27 26 25 25 25 25 25 25 25 26 26 27 27 26 26 27 27 27 27 27 27 28 28 28 28 29 29 29 29 29 29 29 29 29 29 28 29 29 29
Wind_Direction
348 349 345 338 329 316 306 300 289 278 274 272 264 258 254 252 244 238 238 238 239 243 247 250 248 248 248 250 254 249 244 243 245 248 252 256 261 261 258 256 255 250 252
336 343 346 343 335 336 329 310 302 284 271 272 262 261 260 254 247 243 243 242 243 244 246 246 247 247 246 246 249 249 241 238 245 253 255 259 261 260 256 256 252 251 253
329 331 334 341 343 344 340 330 312 308 294 289 281 274 271 261 256 252 247 244 246 246 245 244 247 245 242 242 247 244 238 240 245 249 254 259 260 263 260 255 254 256 256
336 330 333 333 333 335 330 327 321 311 303 295 288 289 279 265 259 249 248 246 248 252 253 249 250 251 250 246 249 251 243 242 242 245 251 257 260 264 262 261 259 257 259
337 332 332 321 319 328 325 320 317 317 309 299 294 293 284 271 269 260 254 254 255 254 256 252 253 253 249 250 255 253 244 241 242 246 252 258 259 261 259 259 261 262 262
332 328 327 317 315 319 318 317 311 306 304 295 289 293 291 277 276 274 264 261 263 265 267 258 256 254 254 253 254 255 249 244 244 248 253 257 260 260 260 257 260 264 267
328 327 320 317 316 314 310 308 312 309 301 295 289 294 293 286 276 275 270 267 268 268 269 262 258 254 254 256 254 252 251 249 248 249 254 255 258 259 259 258 258 261 266
324 321 315 317 316 312 305 303 303 306 302 289 287 287 295 287 278 277 275 270 268 270 273 264 252 258 259 255 253 253 252 254 253 253 255 256 258 260 261 262 261 262 266
317 317 314 314 312 310 305 303 300 300 302 293 286 287 286 282 278 280 275 271 273 273 273 263 261 262 265 260 257 255 254 254 255 256 258 259 259 261 261 263 266 267 271
310 310 307 306 306 301 297 294 295 294 295 294 290 282 281 281 277 273 268 270 274 272 266 260 265 265 266 263 261 258 257 256 257 259 260 262 261 261 260 263 265 268 271
301 305 301 298 298 296 293 291 288 286 288 287 288 287 287 284 283 277 267 265 269 274 271 267 268 266 268 266 264 261 260 260 260 261 262 263 263 263 265 266 268 268 268
295 299 300 297 297 294 291 288 286 282 284 284 284 284 286 287 286 283 278 275 275 275 270 268 266 268 274 271 265 261 260 262 263 265 265 266 266 266 267 268 267 268 269
293 295 296 295 293 293 288 285 284 283 281 280 279 279 280 281 281 281 278 279 278 276 272 266 266 269 270 269 266 263 261 263 266 267 268 267 267 268 268 270 271 272 273
291 291 293 291 288 287 286 284 283 282 281 279 278 277 278 278 279 279 278 279 277 276 272 268 268 271 270 271 271 269 266 266 267 268 268 267 267 268 269 270 272 272 274
287 287 287 286 284 281 281 280 279 280 282 279 277 277 277 277 279 278 278 277 277 277 272 269 269 269 271 272 273 272 271 271 269 268 268 268 268 269 270 271 273 273 274
283 284 283 283 281 278 277 277 276 277 278 278 277 278 278 277 276 276 277 276 276 275 272 271 269 268 270 272 272 270 269 271 270 268 268 270 270 272 272 273 273 273 274
281 280 279 280 278 276 275 275 276 276 276 276 275 275 276 275 274 275 276 277 276 273 272 271 271 269 269 269 268 269 269 270 273 271 270 271 273 274 275 276 276 274 273
278 278 279 279 278 279 276 277 276 275 274 274 275 274 272 273 272 271 272 274 274 271 269 269 271 272 270 269 270 270 270 271 272 274 274 273 276 277 276 277 279 276 273
276 277 278 279 278 280 278 276 274 273 273 271 272 272 272 273 273 270 269 270 270 270 270 270 271 273 273 272 273 271 270 271 273 274 274 275 277 279 278 279 279 279 277
276 277 279 278 277 276 274 274 276 274 272 271 271 271 271 270 270 269 268 268 269 270 269 270 271 273 275 274 273 271 271 273 273 275 276 275 275 277 279 281 282 281 281
274 275 276 277 277 275 273 271 272 273 272 271 269 268 269 269 269 268 269 268 270 270 269 270 271 273 275 275 272 272 272 274 274 274 275 275 276 277 280 282 283 283 282
272 273 275 276 276 274 272 270 271 271 270 269 268 266 267 268 268 270 271 271 271 270 269 269 270 272 273 274 273 272 273 273 272 271 273 274 277 278 279 280 281 282 282
271 272 274 274 274 274 272 271 271 271 270 269 266 265 266 268 269 269 271 272 272 271 269 269 271 271 271 272 272 273 273 273 271 270 272 273 274 276 278 279 280 281 281
270 272 274 274 274 274 272 271 271 271 270 268 266 265 265 267 267 268 270 271 273 273 271 269 271 271 270 270 270 271 272 273 273 272 273 275 276 277 277 277 280 281 282
273 273 274 276 276 274 272 271 271 269 268 268 266 264 265 267 267 268 269 270 272 273 272 271 271 271 271 271 271 272 272 272 273 274 273 275 275 278 278 279 280 280 281
274 274 274 278 277 274 272 271 269 268 266 266 266 266 267 266 266 267 269 270 271 271 271 272 271 271 271 272 272 271 272 272 273 274 274 274 276 277 277 277 278 278 279
Height
5874 5873 5872 5871 5870 5869 5868 5867 5866 5866 5866 5865 5865 5865 5865 5866 5866 5866 5866 5867 5867 5867 5868 5868 5868 5868 5869 5869 5869 5869 5870 5870 5871 5871 5871 5871 5871 5871 5871 5871 5871 5871 5871
5873 5872 5871 5870 5870 5868 5867 5866 5866 5865 5864 5864 5864 5864 5864 5864 5864 5864 5864 5865 5865 5865 5866 5866 5866 5867 5867 5867 5867 5867 5867 5868 5869 5869 5869 5869 5869 5869 5869 5869 5869 5869 5869
5871 5871 5870 5869 5868 5867 5866 5866 5865 5864 5863 5862 5862 5862 5862 5863 5863 5862 5862 5863 5863 5864 5864 5864 5864 5865 5865 5865 5865 5865 5865 5866 5867 5867 5867 5867 5867 5867 5866 5866 5866 5866 5866
5871 5870 5869 5868 5867 5866 5865 5865 5864 5863 5862 5861 5861 5861 5861 5861 5861 5861 5861 5861 5862 5862 5862 5862 5862 5863 5862 5862 5863 5863 5863 5864 5864 5865 5865 5865 5865 5865 5864 5864 5864 5864 5864
5870 5869 5868 5867 5866 5865 5864 5863 5862 5862 5861 5861 5860 5860 5860 5860 5859 5859 5860 5860 5860 5860 5860 5860 5860 5860 5860 5860 5860 5861 5861 5861 5862 5862 5862 5862 5862 5862 5862 5862 5861 5861 5861
5869 5868 5867 5866 5865 5864 5863 5862 5861 5861 5860 5860 5859 5858 5858 5858 5858 5857 5858 5858 5858 5858 5857 5858 5858 5858 5858 5858 5858 5858 5858 5859 5859 5859 5860 5860 5860 5859 5859 5859 5859 5858 5858
5868 5867 5866 5865 5863 5862 5861 5860 5860 5859 5859 5858 5858 5857 5857 5856 5856 5856 5856 5856 5856 5856 5856 5856 5856 5856 5856 5855 5855 5856 5856 5856 5856 5856 5857 5857 5857 5856 5856 5856 5856 5856 5855
5866 5865 5864 5863 5862 5861 5860 5859 5858 5858 5857 5857 5856 5856 5855 5855 5854 5854 5854 5854 5854 5854 5854 5853 5853 5854 5853 5853 5853 5853 5853 5853 5853 5853 5853 5854 5854 5854 5853 5853 5853 5853 5852
5864 5863 5862 5861 5860 5859 5858 5857 5856 5856 5855 5855 5854 5854 5854 5853 5853 5852 5852 5852 5852 5852 5851 5851 5851 5851 5851 5851 5850 5850 5850 5850 5850 5850 5850 5850 5850 5850 5850 5850 5850 5849 5848
5862 5861 5860 5859 5858 5856 5856 5855 5854 5854 5854 5853 5853 5852 5852 5851 5851 5851 5850 5850 5850 5849 5849 5849 5849 5848 5848 5848 5848 5847 5847 5847 5847 5847 5847 5847 5846 5846 5846 5846 5845 5845 5844
5860 5858 5857 5856 5855 5854 5853 5852 5852 5852 5851 5851 5851 5850 5849 5849 5849 5849 5848 5848 5848 5847 5847 5847 5846 5846 5845 5845 5845 5844 5844 5844 5844 5843 5843 5843 5843 5842 5842 5842 5841 5840 5840
5856 5855 5854 5853 5852 5851 5850 5850 5849 5849 5848 5848 5848 5847 5847 5846 5846 5846 5845 5845 5845 5844 5844 5844 5844 5843 5843 5842 5842 5841 5841 5840 5840 5840 5839 5839 5839 5838 5838 5837 5836 5836 5835
5852 5851 5850 5849 5849 5848 5847 5847 5846 5845 5845 5844 5844 5844 5843 5843 5843 5842 5842 5842 5841 5841 5841 5841 5840 5840 5840 5839 5838 5838 5837 5837 5836 5836 5835 5835 5834 5834 5833 5832 5832 5831 5830
5848 5847 5846 5845 5845 5844 5844 5843 5842 5842 5841 5840 5840 5839 5839 5839 5839 5839 5838 5838 5838 5837 5837 5837 5837 5836 5836 5835 5834 5834 5833 5833 5832 5831 5831 5830 5830 5829 5828 5827 5826 5825 5824
5843 5842 5842 5841 5840 5840 5839 5839 5838 5837 5837 5836 5836 5835 5835 5835 5835 5834 5834 5834 5834 5833 5833 5833 5833 5832 5832 5831 5830 5829 5829 5828 5827 5827 5826 5825 5824 5823 5822 5821 5820 5819 5818
5837 5837 5836 5835 5835 5834 5834 5833 5833 5832 5832 5831 5831 5831 5830 5830 5830 5830 5829 5829 5829 5829 5829 5828 5828 5827 5827 5826 5825 5825 5824 5823 5823 5822 5821 5820 5819 5818 5817 5816 5814 5813 5812
5831 5831 5830 5830 5829 5828 5828 5828 5827 5827 5826 5826 5826 5825 5825 5825 5825 5825 5824 5824 5823 5823 5823 5823 5822 5822 5821 5821 5820 5820 5819 5818 5817 5817 5816 5815 5813 5812 5811 5810 5808 5806 5805
5826 5825 5824 5824 5823 5822 5822 5821 5821 5821 5821 5820 5820 5820 5819 5819 5819 5819 5819 5818 5818 5818 5818 5817 5817 5816 5815 5815 5814 5814 5813 5813 5812 5811 5810 5809 5808 5807 5805 5804 5802 5800 5799
5819 5819 5818 5817 5817 5816 5815 5815 5815 5815 5814 5814 5814 5813 5813 5813 5812 5812 5812 5812 5812 5812 5812 5812 5811 5810 5809 5809 5808 5808 5807 5807 5806 5806 5804 5804 5803 5802 5800 5798 5797 5795 5794
5812 5812 5811 5811 5810 5809 5809 5808 5808 5808 5808 5807 5807 5807 5806 5806 5806 5806 5806 5806 5806 5806 5805 5805 5805 5804 5803 5802 5802 5801 5801 5800 5800 5799 5799 5798 5797 5796 5794 5793 5792 5790 5788
5806 5805 5805 5804 5803 5803 5802 5801 5801 5801 5801 5800 5800 5799 5799 5799 5799 5799 5799 5799 5799 5799 5799 5798 5798 5798 5797 5796 5796 5795 5794 5794 5793 5793 5793 5792 5791 5790 5788 5787 5785 5784 5782
5798 5798 5798 5797 5796 5795 5795 5794 5794 5793 5793 5793 5792 5792 5792 5792 5792 5792 5792 5792 5792 5791 5791 5791 5791 5790 5790 5790 5789 5788 5788 5787 5787 5787 5786 5785 5784 5783 5781 5780 5778 5777 5775
5790 5790 5789 5789 5789 5788 5787 5786 5786 5786 5785 5785 5784 5784 5784 5784 5784 5784 5784 5784 5784 5783 5783 5784 5783 5783 5783 5782 5782 5781 5780 5780 5780 5779 5778 5778 5777 5776 5774 5772 5771 5769 5768
5782 5782 5782 5781 5780 5780 5779 5778 5778 5777 5777 5777 5776 5777 5777 5776 5776 5776 5776 5776 5776 5775 5775 5775 5775 5775 5775 5774 5774 5774 5773 5772 5772 5771 5770 5770 5769 5768 5766 5765 5763 5762 5760
5774 5774 5773 5773 5772 5771 5770 5770 5769 5769 5769 5768 5769 5769 5769 5768 5768 5768 5769 5768 5768 5767 5767 5767 5767 5766 5766 5766 5766 5765 5765 5764 5764 5763 5762 5761 5761 5760 5758 5757 5755 5754 5752
5766 5765 5765 5764 5763 5762 5762 5761 5761 5761 5760 5760 5760 5760 5760 5760 5760 5760 5760 5760 5760 5759 5759 5759 5758 5758 5758 5757 5757 5756 5756 5755 5755 5754 5753 5753 5752 5751 5750 5749 5747 5745 5744